Regional Weather Roundup
Issued by NWS

Home | Current Version | Previous Version | Graphics & Text | Print | Product List | Glossary On
Versions: 1 2 3 4 5 6 7 8 9 10 11 12 13 14 15 16 17 18 19 20 21 22 23 24 25 26 27 28 29 30 31 32 33 34 35 36 37 38 39 40 41 42 43 44 45 46 47 48 49 50
000
ASUS45 KCYS 181810
RWRWY

WYOMING REGIONAL WEATHER ROUNDUP
NATIONAL WEATHER SERVICE CHEYENNE WY
1200 PM MDT SAT APR 18 2015

NOTE:  "FAIR" INDICATES FEW OR NO CLOUDS BELOW 12,000 FEET
WITH NO SIGNIFICANT WEATHER AND/OR OBSTRUCTIONS TO VISIBILITY.

WYZ001-181900-
YELLOWSTONE NATIONAL PARK

CITY           SKY/WX    TMP DP  RH WIND       PRES   REMARKS
LK YELLOWSTONE   N/A     47  19  33 VRB3      30.13F
6HR MIN TEMP:  20; 6HR MAX TEMP:  48;

W YELLOWSTONE  NOT AVBL

$$
WYZ002>013-054>058-071-098>099-181900-
NORTHERN WYOMING

CITY           SKY/WX    TMP DP  RH WIND       PRES   REMARKS
JACKSON        SUNNY     55  19  24 N18G25    30.05F
CODY           FAIR      57  32  38 N21G26    30.03F
GREYBULL       FAIR      65  27  23 N29G38    29.95F
6HR MIN TEMP:  33; 6HR MAX TEMP:  65;

WORLAND        FAIR      62  30  29 NW16G23   29.96F
6HR MIN TEMP:  30; 6HR MAX TEMP:  62;

SHERIDAN       FAIR      62  34  35 NW18G28   29.97F
6HR MIN TEMP:  30; 6HR MAX TEMP:  62;

BUFFALO        FAIR      60  30  32 N22       29.98F
6HR MIN TEMP:  38; 6HR MAX TEMP:  61;

GILLETTE       FAIR      53  40  61 CALM      29.96F
6HR MIN TEMP:  33; 6HR MAX TEMP:  54;

HULETT         CLOUDY    54  37  54 CALM      29.97F
NEWCASTLE      LGT RAIN  45  37  76 NE3       29.97F

$$
WYZ014>020-022>026-101>103-181900-
CENTRAL WYOMING

CITY           SKY/WX    TMP DP  RH WIND       PRES   REMARKS
BIG PINEY      FAIR      58  14  17 N12G22    30.01F
6HR MIN TEMP:  21; 6HR MAX TEMP:  59;

PINEDALE       FAIR      54  14  20 NW7       30.01F
DUBOIS         FAIR      52  16  24 W6        30.02F
LANDER         FAIR      59  32  36 N14G21    29.98F
6HR MIN TEMP:  33; 6HR MAX TEMP:  59;

RIVERTON       FAIR      59  29  31 N21G28    29.99F
6HR MIN TEMP:  33; 6HR MAX TEMP:  59;

CASPER         LGT RAIN  47  41  80 NE14      29.96S
6HR MIN TEMP:  35; 6HR MAX TEMP:  47; 6HR PCP: TRACE;

DOUGLAS        LGT RAIN  43  40  89 NE13      29.96S
6HR MIN TEMP:  37; 6HR MAX TEMP:  44; 6HR PCP:  0.21;


$$
WYZ021-027>030-104>119-181900-
SOUTHERN WYOMING

CITY           SKY/WX    TMP DP  RH WIND       PRES   REMARKS
EVANSTON       FAIR      52  30  43 NW18      30.06F
6HR MIN TEMP:  32; 6HR MAX TEMP:  52;

KEMMERER       FAIR      55  23  28 W16       30.02F
FORT BRIDGER   CLEAR     54  32  43 W6        30.06F
ROCK SPRINGS   FAIR      50  32  50 N16G23    30.00F
6HR MIN TEMP:  31; 6HR MAX TEMP:  51;

DIXON          LGT RAIN  35  34  96 CALM      29.98F
RAWLINS        LGT RAIN  38  36  92 N13       29.96S FOG     WCI  30
6HR MIN TEMP:  33; 6HR MAX TEMP:  39; 6HR PCP:  0.03;

SARATOGA       SNOW      32  32 100 CALM      29.96S VSB 1/2
LARAMIE        LGT SNOW  31  30  96 W7        29.94R FOG     WCI  24
6HR MIN TEMP:  28; 6HR MAX TEMP:  31; 6HR PCP:  0.27;

CHEYENNE       CLOUDY    39  34  82 N8        29.93S WCI  33
6HR MIN TEMP:  35; 6HR MAX TEMP:  40;

TORRINGTON     CLOUDY    48  46  93 SE6       29.91F
6HR MIN TEMP:  42; 6HR MAX TEMP:  48; 6HR PCP:  0.08;

PINE BLUFFS    MOCLDY    45  36  70 NW3       29.92F

$$


USA.gov is the U.S. government's official web portal to all federal, state and local government web resources and services.